Regional Weather Roundup
Issued by NWS Memphis, TN

Home | Current Version | Previous Version | Text Only | Print | Product List | Glossary On
Versions: 1 2 3 4 5 6 7 8 9 10 11 12 13 14 15 16 17 18 19 20 21 22 23 24 25 26 27 28 29 30 31 32 33 34 35 36 37 38 39 40 41 42 43 44 45 46 47 48 49 50
000
ASUS44 KMEG 281610
RWRMEG
MEMPHIS CWA HOURLY WEATHER ROUNDUP
NATIONAL WEATHER SERVICE MEMPHIS TN
1000 AM CST SUN DEC 28 2014

...WEST TENNESSEE...

CITY           SKY/WX    TMP DP  RH WIND       PRES   REMARKS
MEMPHIS INTL   LGT RAIN  40  36  86 N8        30.22R WCI  34
NWS MEMPHIS      N/A     39 N/A N/A MISG        N/A
JACKSON        CLOUDY    40  37  89 N8        30.22R WCI  34
LEXINGTON      CLOUDY    39  37  93 N8        30.17S WCI  34
SAVANNAH       CLOUDY    41  41 100 N5        30.18R
DYERSBURG      CLOUDY    37  25  60 N6        30.25R WCI  33
UNION CITY     CLOUDY    36  34  93 N9        30.20R WCI  29
PARIS          CLOUDY    36  34  93 N6        30.20R WCI  31
HUNTINGDON     CLOUDY    37  34  89 NE5       30.20R WCI  33


...EASTERN ARKANSAS...

CITY           SKY/WX    TMP DP  RH WIND       PRES   REMARKS
JONESBORO      CLOUDY    37  32  82 N6        30.26R WCI  32
WEST MEMPHIS   CLOUDY    40  37  89 N12       30.23R WCI  33
BATESVILLE     CLOUDY    36  28  75 NW6       30.26S WCI  31
NEWPORT        CLOUDY    36  32  85 N9        30.27R WCI  29
WALNUT RIDGE   CLOUDY    36  28  75 N8        30.25R WCI  29
BLYTHEVILLE    CLOUDY    38  34  85 N14       30.25R WCI  30
SEARCY         CLOUDY    37  31  78 N5        30.28R WCI  33
STUTTGART      CLOUDY    37  32  81 N12       30.25S WCI  30
PINE BLUFF     CLOUDY    40  36  86 N9        30.25S WCI  34
MONTICELLO     LGT RAIN  41  38  89 VRB5      30.23S


...NORTH MISSISSIPPI...

CITY           SKY/WX    TMP DP  RH WIND       PRES   REMARKS
TUPELO         CLOUDY    44  41  89 N8        30.18R
OXFORD         CLOUDY    39  37  93 N7        30.20F WCI  34
OLIVE BRANCH   LGT RAIN  37  37 100 N9        30.21R FOG     WCI  31
TUNICA         DRIZZLE   41  37  87 N9        30.25R
CLARKSDALE     CLOUDY    41  41 100 N12       30.25R
GRENADA        CLOUDY    43  41  93 CALM      30.21S
GREENWOOD      CLOUDY    45  42  89 N8        30.21R
COLUMBUS       CLOUDY    49  49  99 NW10      30.15R
STARKVILLE     CLOUDY    46  46 100 NW9       30.16R
GOLDEN TRIANGL CLOUDY    52  48  87 N9        30.14R


...SOUTHEAST MISSOURI...

CITY           SKY/WX    TMP DP  RH WIND       PRES   REMARKS
WEST PLAINS    CLOUDY    29  23  78 VRB5      30.23S WCI  24
POPLAR BLUFF   CLOUDY    35  28  75 N8        30.25R WCI  29
CAPE GIRARDEAU CLOUDY    35  29  78 N9        30.24S WCI  28


...NORTHWEST ALABAMA...

CITY           SKY/WX    TMP DP  RH WIND       PRES   REMARKS
MUSCLE SHOALS  LGT RAIN  48  44  86 N6        30.16R


...MIDDLE TENNESSEE...

CITY           SKY/WX    TMP DP  RH WIND       PRES   REMARKS
NASHVILLE      LGT RAIN  41  39  93 N5        30.17F
CLARKSVILLE    CLOUDY    39  36  89 N10       30.20R WCI  32
COLUMBIA       CLOUDY   N/A N/A N/A CALM      30.15S


...WESTERN KENTUCKY...

CITY           SKY/WX    TMP DP  RH WIND       PRES   REMARKS
PADUCAH        CLOUDY    35  30  82 N9        30.22S WCI  28
FORT CAMPBELL  CLOUDY    37  35  90 N7        30.19S WCI  32


...CENTRAL ARKANSAS...

CITY           SKY/WX    TMP DP  RH WIND       PRES   REMARKS
LITTLE ROCK    CLOUDY    38  31  76 N9        30.27R WCI  31


SKY/WX REPORTED AS FAIR MEANS FEW OR NO CLOUDS BELOW
12 THOUSAND FEET.



USA.gov is the U.S. government's official web portal to all federal, state and local government web resources and services.